When you browse on this site, cookies collect data to enhance your experience and personalize the content and advertising you see.
Visit our Privacy Policy to learn more. By continuing to use the site, you agree to this use of cookies and data.

Stündliche Wetter Sucre

Heute, 5 August, Mittwoch

Zeit Temperatur Niederschläge Wind Luftdruck Luftfeuchtigkeit
00:00 +20°C° 0 mm 1 m/S 656 mmHg 72%
01:00 +20°C° 0 mm 1 m/S 656 mmHg 72%
02:00 +20°C° 0 mm 1 m/S 655 mmHg 71%
03:00 +19°C° 0 mm 1 m/S 655 mmHg 71%
04:00 +19°C° 0 mm 1 m/S 655 mmHg 70%
05:00 +19°C° 0 mm 1 m/S 655 mmHg 70%
06:00 +19°C° 0 mm 2 m/S 655 mmHg 69%
07:00 +19°C° 0 mm 2 m/S 656 mmHg 69%
08:00 +22°C° 0 mm 1 m/S 657 mmHg 62%
09:00 +24°C° 0 mm 1 m/S 657 mmHg 54%
10:00 +27°C° 0 mm 1 m/S 658 mmHg 47%
11:00 +28°C° 0 mm 1 m/S 658 mmHg 45%
12:00 +29°C° 0 mm 1 m/S 658 mmHg 42%
13:00 +30°C° 0 mm 1 m/S 658 mmHg 40%
14:00 +29°C° 0 mm 1 m/S 657 mmHg 45%
15:00 +28°C° 0 mm 2 m/S 656 mmHg 50%
16:00 +26°C° 0 mm 2 m/S 655 mmHg 55%
17:00 +25°C° 0 mm 2 m/S 655 mmHg 60%
18:00 +24°C° 0 mm 2 m/S 655 mmHg 66%
19:00 +22°C° 0 mm 1 m/S 655 mmHg 71%
20:00 +22°C° 0 mm 1 m/S 655 mmHg 72%
21:00 +21°C° 0 mm 1 m/S 656 mmHg 74%
22:00 +21°C° 0 mm 1 m/S 656 mmHg 75%
23:00 +20°C° 0 mm 1 m/S 656 mmHg 76%

Morgen, 6 August, Donnerstag

Zeit Temperatur Niederschläge Wind Luftdruck Luftfeuchtigkeit
00:00 +20°C° 0 mm 1 m/S 655 mmHg 77%
01:00 +20°C° 0 mm 1 m/S 655 mmHg 77%
02:00 +20°C° 0 mm 1 m/S 655 mmHg 78%
03:00 +20°C° 0 mm 1 m/S 654 mmHg 79%
04:00 +20°C° 0 mm 1 m/S 654 mmHg 80%
05:00 +20°C° 0 mm 1 m/S 654 mmHg 79%
06:00 +20°C° 0 mm 1 m/S 655 mmHg 78%
07:00 +21°C° 0 mm 1 m/S 655 mmHg 78%
08:00 +23°C° 0 mm 1 m/S 656 mmHg 71%
09:00 +24°C° 0 mm 1 m/S 657 mmHg 64%
10:00 +26°C° 0 mm 1 m/S 658 mmHg 57%
11:00 +27°C° 0 mm 1 m/S 658 mmHg 54%
12:00 +28°C° 0 mm 1 m/S 657 mmHg 50%
13:00 +29°C° 0 mm 1 m/S 657 mmHg 46%
14:00 +29°C° 0 mm 1 m/S 657 mmHg 47%
15:00 +29°C° 0 mm 2 m/S 656 mmHg 48%
16:00 +28°C° 0 mm 2 m/S 656 mmHg 49%
17:00 +26°C° 0 mm 2 m/S 655 mmHg 56%
18:00 +24°C° 0 mm 2 m/S 655 mmHg 64%
19:00 +21°C° 0 mm 2 m/S 655 mmHg 71%
20:00 +21°C° 0 mm 2 m/S 655 mmHg 73%
21:00 +21°C° 0 mm 1 m/S 656 mmHg 75%
22:00 +21°C° 0 mm 1 m/S 656 mmHg 77%
23:00 +21°C° 0 mm 1 m/S 656 mmHg 77%

übermorgen, 7 August, Freitag

Zeit Temperatur Niederschläge Wind Luftdruck Luftfeuchtigkeit
00:00 +21°C° 0 mm 1 m/S 656 mmHg 77%
01:00 +21°C° 0 mm 1 m/S 655 mmHg 78%
02:00 +20°C° 0 mm 1 m/S 655 mmHg 79%
03:00 +20°C° 0 mm 1 m/S 655 mmHg 79%
04:00 +20°C° 0 mm 1 m/S 654 mmHg 80%
05:00 +20°C° 0 mm 1 m/S 655 mmHg 79%
06:00 +21°C° 0 mm 1 m/S 655 mmHg 78%
07:00 +21°C° 0 mm 1 m/S 655 mmHg 78%
08:00 +23°C° 0 mm 1 m/S 656 mmHg 70%
09:00 +25°C° 0 mm 1 m/S 657 mmHg 62%
10:00 +27°C° 0 mm 1 m/S 658 mmHg 55%
11:00 +27°C° 0 mm 1 m/S 658 mmHg 53%
12:00 +28°C° 0 mm 2 m/S 658 mmHg 52%
13:00 +28°C° 0 mm 2 m/S 657 mmHg 51%
14:00 +28°C° 0.1 mm 2 m/S 657 mmHg 51%
15:00 +28°C° 0.1 mm 2 m/S 656 mmHg 52%
16:00 +28°C° 0.1 mm 2 m/S 656 mmHg 52%
17:00 +26°C° 0 mm 2 m/S 656 mmHg 57%
18:00 +24°C° 0 mm 2 m/S 656 mmHg 62%
19:00 +21°C° 0 mm 2 m/S 655 mmHg 67%
20:00 +21°C° 0 mm 2 m/S 656 mmHg 69%
21:00 +21°C° 0 mm 2 m/S 656 mmHg 71%
22:00 +21°C° 0 mm 1 m/S 656 mmHg 74%
23:00 +21°C° 0 mm 1 m/S 656 mmHg 75%

8 August, Samstag

Zeit Temperatur Niederschläge Wind Luftdruck Luftfeuchtigkeit
00:00 +21°C° 0 mm 1 m/S 656 mmHg 76%
01:00 +20°C° 0 mm 1 m/S 656 mmHg 77%
02:00 +20°C° 0 mm 1 m/S 655 mmHg 78%
03:00 +20°C° 0 mm 1 m/S 655 mmHg 78%
04:00 +20°C° 0 mm 1 m/S 655 mmHg 79%
05:00 +20°C° 0 mm 1 m/S 655 mmHg 78%
06:00 +21°C° 0 mm 1 m/S 656 mmHg 77%
07:00 +21°C° 0 mm 1 m/S 656 mmHg 76%
08:00 +23°C° 0 mm 1 m/S 657 mmHg 68%
09:00 +26°C° 0 mm 1 m/S 658 mmHg 59%
10:00 +28°C° 0 mm 1 m/S 659 mmHg 51%
11:00 +29°C° 0 mm 1 m/S 659 mmHg 49%
12:00 +29°C° 0 mm 1 m/S 658 mmHg 47%
13:00 +30°C° 0 mm 2 m/S 658 mmHg 45%
14:00 +29°C° 0 mm 2 m/S 657 mmHg 47%
15:00 +29°C° 0 mm 2 m/S 657 mmHg 48%
16:00 +28°C° 0 mm 2 m/S 656 mmHg 50%
17:00 +26°C° 0 mm 2 m/S 656 mmHg 55%
18:00 +24°C° 0 mm 2 m/S 656 mmHg 61%
19:00 +21°C° 0 mm 2 m/S 656 mmHg 66%
20:00 +21°C° 0 mm 2 m/S 656 mmHg 69%
21:00 +21°C° 0 mm 2 m/S 656 mmHg 71%
22:00 +21°C° 0 mm 1 m/S 657 mmHg 73%
23:00 +21°C° 0 mm 1 m/S 656 mmHg 75%

9 August, Sonntag

Zeit Temperatur Niederschläge Wind Luftdruck Luftfeuchtigkeit
00:00 +21°C° 0 mm 1 m/S 656 mmHg 76%
01:00 +20°C° 0 mm 1 m/S 655 mmHg 77%
02:00 +20°C° 0 mm 1 m/S 655 mmHg 77%
03:00 +20°C° 0 mm 1 m/S 655 mmHg 78%
04:00 +20°C° 0 mm 1 m/S 655 mmHg 78%
05:00 +20°C° 0 mm 1 m/S 655 mmHg 77%
06:00 +21°C° 0 mm 1 m/S 656 mmHg 77%
07:00 +21°C° 0 mm 1 m/S 656 mmHg 76%
08:00 +23°C° 0 mm 1 m/S 657 mmHg 69%
09:00 +25°C° 0 mm 1 m/S 657 mmHg 62%
10:00 +27°C° 0 mm 1 m/S 658 mmHg 54%
11:00 +29°C° 0 mm 1 m/S 658 mmHg 51%
12:00 +30°C° 0 mm 1 m/S 658 mmHg 47%
13:00 +31°C° 0 mm 1 m/S 657 mmHg 43%
14:00 +30°C° 0 mm 1 m/S 657 mmHg 45%
15:00 +29°C° 0 mm 1 m/S 656 mmHg 48%
16:00 +29°C° 0 mm 2 m/S 655 mmHg 51%
17:00 +27°C° 0 mm 2 m/S 655 mmHg 59%
18:00 +25°C° 0 mm 2 m/S 655 mmHg 67%
19:00 +23°C° 0 mm 2 m/S 655 mmHg 75%
20:00 +21°C° 0 mm 2 m/S 655 mmHg 76%
21:00 +21°C° 0 mm 1 m/S 655 mmHg 77%
22:00 +21°C° 0 mm 1 m/S 656 mmHg 78%
23:00 +21°C° 0 mm 1 m/S 655 mmHg 78%

10 August, Montag

Zeit Temperatur Niederschläge Wind Luftdruck Luftfeuchtigkeit
00:00 +20°C° 0 mm 1 m/S 655 mmHg 78%
01:00 +20°C° 0 mm 1 m/S 655 mmHg 78%
02:00 +20°C° 0 mm 1 m/S 654 mmHg 78%
03:00 +20°C° 0 mm 1 m/S 654 mmHg 78%
04:00 +19°C° 0 mm 1 m/S 654 mmHg 79%
05:00 +20°C° 0 mm 1 m/S 654 mmHg 77%
06:00 +20°C° 0 mm 1 m/S 655 mmHg 76%
07:00 +20°C° 0 mm 1 m/S 655 mmHg 75%
08:00 +23°C° 0 mm 1 m/S 656 mmHg 66%
09:00 +25°C° 0 mm 1 m/S 657 mmHg 58%
10:00 +28°C° 0 mm 1 m/S 657 mmHg 50%
11:00 +29°C° 0 mm 1 m/S 657 mmHg 46%
12:00 +31°C° 0 mm 1 m/S 657 mmHg 42%
13:00 +32°C° 0 mm 1 m/S 657 mmHg 39%
14:00 +31°C° 0 mm 1 m/S 656 mmHg 40%
15:00 +31°C° 0 mm 1 m/S 655 mmHg 42%
16:00 +30°C° 0 mm 1 m/S 655 mmHg 44%
17:00 +28°C° 0 mm 1 m/S 654 mmHg 56%
18:00 +25°C° 0 mm 1 m/S 654 mmHg 68%
19:00 +22°C° 0 mm 1 m/S 653 mmHg 80%
20:00 +22°C° 0 mm 1 m/S 654 mmHg 81%
21:00 +21°C° 0 mm 1 m/S 654 mmHg 82%
22:00 +21°C° 0 mm 1 m/S 655 mmHg 83%
23:00 +21°C° 0 mm 1 m/S 654 mmHg 83%
Mehr zeigen